Weather Roundup
Issued by NWS Chicago, IL

Home | Current Version | Previous Version | Text Only | Print | Product List | Glossary Off
Versions: 1 2 3 4 5 6 7 8 9 10 11 12 13 14 15 16 17 18 19 20 21 22 23 24 25 26 27 28 29 30 31 32 33 34 35 36 37 38 39 40 41 42 43 44 45 46 47 48 49 50

000
NZUS59 KLOT 181509
HRRLOT

CHICAGO AREA WEATHER ROUNDUP
NATIONAL WEATHER SERVICE CHICAGO/ROMEOVILLE IL
1000 AM CDT WED OCT 18 2017

NOTE: "FAIR" INDICATES FEW OR NO CLOUDS BELOW 12,000 FEET WITH NO
SIGNIFICANT WEATHER AND/OR OBSTRUCTIONS TO VISIBILITY.

* THESE STATIONS ARE NOT UNDER NWS QUALITY CONTROL. THEY ALSO MAY NOT
  REPORT WEATHER SUCH AS PRECIPITATION OR FOG.

ILZ005-006-012>014-019>023-181600-
NORTHEAST ILLINOIS

CITY           SKY/WX    TMP DP  RH WIND       PRES   REMARKS
OHARE          SUNNY     58  42  55 S12       30.15F
MIDWAY         SUNNY     59  42  53 SW12      30.16F
AURORA         SUNNY     56  45  66 S10       30.16S
LANSING*       SUNNY     57  47  67 SW12      30.19F
JOLIET*        SUNNY     59  46  60 S9        30.17F
WAUKEGAN       SUNNY     59  44  57 SW14      30.11F
DUPAGE AIRPORT SUNNY     56  44  64 S10       30.14F
WHEELING       SUNNY     59  44  57 S12       30.15F
KANKAKEE*      SUNNY     57  44  61 S12       30.21F
MORRIS*        SUNNY     58  44  59 S10       30.16S
LEWIS AIRPORT* SUNNY     57  44  60 S12       30.17S
NORTHERLY ISL    N/A     58  40  51 SW12        N/A
$$

WIZ051-052-058>065-066-070>072-181600-
SOUTHEAST WISCONSIN

CITY           SKY/WX    TMP DP  RH WIND       PRES   REMARKS
MILWAUKEE      SUNNY     60  43  53 SW12      30.09F
KENOSHA*       SUNNY     59  42  53 S14       30.11F
RACINE*        SUNNY     59  43  55 SW13      30.11F
BURLINGTON     SUNNY     58  45  61 S12       30.10F
WAUKESHA       SUNNY     55  41  58 S14       30.09F
WEST BEND      SUNNY     59  41  51 S12       30.05F
$$

INZ001>003-010>013-019-020-181600-
NORTHWEST INDIANA

CITY           SKY/WX    TMP DP  RH WIND       PRES   REMARKS
GARY*          SUNNY     59  39  47 S8        30.20S
MICHIGAN CITY* NOT AVBL
RENSSELAER*    NOT AVBL
VALPARAISO     SUNNY     58  44  60 S9        30.22S
$$

LMZ740>746-181600-
SOUTHERN LAKE MICHIGAN

STATION/POSITION TIME  SKY/WX   TEMP WIND        PRES    VSBY
                                AIR  DIR/SP/G
                 (UTC)          (F)  (DEG/KT/KT) (MB)    (MI)
HARRISON CRIB    1440            58  210/ 17/ 18   N/A
BURNHAM HARBOR   1500            59  200/  6/ 11   N/A
CALUMET HARBOR   1448            57  180/  9/ 13 1021.1F
BURNS HARBOR     1440            57  190/ 13/ 19 1022.7S
MICHIGAN CITY    1440            54  170/ 14/ 16   N/A
$$

ABBREVIATIONS USED IN REMARKS
   TC - TEMPERATURE IN CELSIUS
  WCI - WIND CHILL INDEX
   HX - HEAT INDEX
  VSB - VISIBILITY
$$




USA.gov is the U.S. government's official web portal to all federal, state and local government web resources and services.